Precipitable_Water
0.14 0.15 0.17 0.16 0.14 0.14 0.15 0.16 0.17 0.15 0.15 0.19 0.19 0.23 0.32 0.39 0.44 0.46 0.49 0.53 0.54 0.50 0.48 0.52 0.55 0.49 0.46 0.45 0.40 0.36 0.31 0.26 0.22 0.21 0.20 0.19 0.19 0.20 0.20 0.19 0.16 0.16 0.17 0.13
0.18 0.23 0.23 0.18 0.20 0.22 0.19 0.19 0.22 0.24 0.21 0.29 0.37 0.36 0.38 0.41 0.45 0.47 0.50 0.58 0.56 0.51 0.51 0.58 0.52 0.46 0.45 0.40 0.35 0.32 0.25 0.21 0.18 0.17 0.17 0.17 0.18 0.18 0.18 0.18 0.17 0.15 0.15 0.13
0.12 0.21 0.22 0.14 0.19 0.19 0.21 0.25 0.26 0.21 0.24 0.30 0.33 0.33 0.35 0.39 0.43 0.47 0.55 0.54 0.52 0.54 0.58 0.54 0.47 0.45 0.39 0.33 0.30 0.23 0.20 0.17 0.16 0.16 0.15 0.15 0.16 0.16 0.15 0.15 0.16 0.15 0.14 0.14
0.14 0.19 0.10 0.17 0.27 0.26 0.24 0.26 0.30 0.31 0.32 0.37 0.35 0.37 0.43 0.49 0.50 0.54 0.54 0.55 0.57 0.57 0.53 0.48 0.43 0.38 0.34 0.29 0.22 0.19 0.16 0.14 0.15 0.15 0.15 0.15 0.15 0.15 0.15 0.16 0.16 0.16 0.16 0.15
0.18 0.17 0.18 0.22 0.23 0.23 0.24 0.25 0.37 0.36 0.37 0.39 0.46 0.47 0.49 0.56 0.58 0.56 0.56 0.58 0.56 0.51 0.47 0.42 0.38 0.34 0.28 0.22 0.18 0.15 0.14 0.14 0.14 0.15 0.15 0.15 0.15 0.15 0.16 0.16 0.17 0.18 0.18 0.17
0.25 0.18 0.14 0.21 0.28 0.34 0.33 0.19 0.39 0.41 0.40 0.42 0.42 0.32 0.40 0.53 0.60 0.59 0.57 0.53 0.49 0.47 0.45 0.39 0.33 0.28 0.20 0.16 0.14 0.14 0.15 0.15 0.15 0.17 0.16 0.16 0.17 0.18 0.18 0.18 0.18 0.20 0.20 0.19
0.25 0.21 0.19 0.25 0.29 0.36 0.20 0.27 0.42 0.40 0.38 0.40 0.36 0.43 0.49 0.55 0.57 0.55 0.51 0.48 0.48 0.44 0.37 0.30 0.27 0.21 0.15 0.14 0.13 0.15 0.16 0.16 0.16 0.17 0.17 0.18 0.18 0.19 0.20 0.20 0.20 0.19 0.19 0.19
0.28 0.23 0.15 0.34 0.35 0.28 0.38 0.46 0.49 0.40 0.41 0.41 0.45 0.49 0.53 0.54 0.52 0.50 0.47 0.44 0.41 0.34 0.29 0.26 0.23 0.16 0.13 0.12 0.14 0.15 0.15 0.15 0.15 0.16 0.17 0.18 0.18 0.18 0.18 0.18 0.16 0.16 0.16 0.15
0.29 0.25 0.32 0.40 0.42 0.48 0.52 0.47 0.44 0.43 0.43 0.43 0.43 0.45 0.48 0.47 0.45 0.41 0.40 0.37 0.33 0.29 0.25 0.24 0.17 0.11 0.10 0.10 0.12 0.12 0.11 0.11 0.13 0.15 0.16 0.17 0.16 0.15 0.14 0.15 0.14 0.13 0.13 0.13
0.36 0.37 0.39 0.48 0.56 0.51 0.51 0.51 0.47 0.46 0.44 0.44 0.41 0.43 0.41 0.40 0.37 0.36 0.33 0.30 0.28 0.24 0.22 0.17 0.12 0.11 0.10 0.11 0.12 0.11 0.11 0.12 0.14 0.13 0.14 0.16 0.16 0.15 0.11 0.09 0.10 0.10 0.09 0.09
0.39 0.42 0.47 0.48 0.50 0.50 0.51 0.50 0.48 0.47 0.46 0.45 0.43 0.42 0.40 0.37 0.35 0.32 0.29 0.27 0.24 0.22 0.20 0.12 0.11 0.10 0.11 0.11 0.11 0.10 0.11 0.13 0.15 0.16 0.16 0.16 0.15 0.15 0.15 0.15 0.13 0.12 0.12 0.12
0.32 0.43 0.43 0.44 0.53 0.54 0.50 0.47 0.44 0.44 0.45 0.46 0.44 0.41 0.41 0.37 0.36 0.31 0.26 0.24 0.22 0.22 0.18 0.12 0.12 0.12 0.12 0.12 0.11 0.12 0.13 0.14 0.16 0.18 0.18 0.17 0.17 0.16 0.17 0.17 0.17 0.16 0.16 0.15
0.41 0.49 0.50 0.53 0.54 0.61 0.56 0.48 0.46 0.45 0.46 0.44 0.45 0.43 0.41 0.36 0.34 0.30 0.25 0.23 0.22 0.22 0.16 0.12 0.12 0.13 0.14 0.14 0.14 0.14 0.13 0.14 0.16 0.18 0.17 0.17 0.17 0.16 0.14 0.16 0.17 0.17 0.17 0.17
0.50 0.54 0.48 0.52 0.47 0.52 0.52 0.51 0.48 0.48 0.46 0.45 0.43 0.43 0.41 0.37 0.34 0.29 0.24 0.24 0.24 0.23 0.15 0.13 0.13 0.13 0.15 0.16 0.15 0.15 0.15 0.16 0.16 0.16 0.17 0.17 0.16 0.16 0.16 0.15 0.14 0.15 0.18 0.18
0.51 0.53 0.52 0.53 0.52 0.50 0.49 0.48 0.46 0.46 0.45 0.44 0.45 0.43 0.39 0.34 0.31 0.27 0.25 0.25 0.24 0.20 0.14 0.13 0.13 0.14 0.15 0.15 0.15 0.15 0.15 0.16 0.17 0.17 0.17 0.17 0.18 0.17 0.16 0.16 0.15 0.15 0.16 0.17
0.49 0.49 0.49 0.47 0.48 0.49 0.48 0.47 0.46 0.45 0.45 0.45 0.43 0.40 0.36 0.34 0.32 0.27 0.25 0.24 0.21 0.15 0.13 0.13 0.13 0.14 0.16 0.16 0.15 0.14 0.13 0.14 0.15 0.16 0.17 0.18 0.17 0.16 0.16 0.16 0.16 0.16 0.15 0.15
0.42 0.40 0.44 0.45 0.46 0.49 0.48 0.48 0.47 0.47 0.46 0.42 0.39 0.37 0.35 0.34 0.32 0.26 0.24 0.23 0.22 0.16 0.15 0.14 0.13 0.15 0.16 0.16 0.15 0.14 0.13 0.14 0.16 0.17 0.16 0.16 0.17 0.17 0.17 0.16 0.16 0.16 0.16 0.17
0.46 0.45 0.47 0.48 0.45 0.45 0.46 0.47 0.44 0.40 0.37 0.37 0.38 0.37 0.36 0.33 0.29 0.27 0.25 0.24 0.22 0.17 0.15 0.16 0.16 0.15 0.15 0.14 0.14 0.14 0.16 0.16 0.17 0.17 0.18 0.17 0.16 0.17 0.17 0.16 0.16 0.16 0.17 0.18
0.43 0.44 0.48 0.48 0.48 0.46 0.43 0.40 0.38 0.37 0.37 0.37 0.36 0.35 0.33 0.31 0.29 0.27 0.27 0.24 0.21 0.16 0.15 0.17 0.16 0.16 0.15 0.15 0.14 0.14 0.14 0.16 0.17 0.18 0.18 0.18 0.17 0.17 0.17 0.17 0.17 0.19 0.19 0.18
0.41 0.44 0.47 0.48 0.49 0.50 0.47 0.45 0.41 0.38 0.39 0.40 0.38 0.35 0.33 0.31 0.29 0.28 0.27 0.24 0.23 0.19 0.19 0.18 0.17 0.16 0.16 0.16 0.15 0.14 0.13 0.13 0.14 0.15 0.16 0.17 0.17 0.17 0.19 0.20 0.20 0.19 0.20 0.21
0.39 0.41 0.43 0.45 0.46 0.47 0.47 0.47 0.44 0.41 0.41 0.39 0.36 0.33 0.31 0.31 0.31 0.29 0.26 0.24 0.25 0.24 0.22 0.20 0.19 0.18 0.18 0.17 0.16 0.15 0.14 0.14 0.15 0.15 0.17 0.18 0.19 0.19 0.20 0.21 0.23 0.24 0.24 0.24
0.37 0.35 0.35 0.36 0.38 0.40 0.42 0.40 0.40 0.40 0.38 0.38 0.37 0.36 0.34 0.32 0.32 0.31 0.30 0.27 0.29 0.28 0.25 0.23 0.22 0.21 0.20 0.19 0.18 0.17 0.16 0.15 0.16 0.18 0.20 0.21 0.22 0.24 0.25 0.26 0.25 0.25 0.25 0.24
0.39 0.38 0.37 0.36 0.35 0.36 0.39 0.39 0.38 0.38 0.37 0.35 0.34 0.34 0.34 0.34 0.33 0.30 0.28 0.32 0.32 0.31 0.30 0.28 0.27 0.26 0.24 0.24 0.23 0.23 0.23 0.23 0.23 0.24 0.25 0.26 0.27 0.27 0.27 0.27 0.26 0.26 0.25 0.24
0.41 0.39 0.39 0.40 0.40 0.38 0.35 0.36 0.37 0.37 0.37 0.37 0.37 0.38 0.37 0.35 0.35 0.37 0.38 0.37 0.37 0.36 0.35 0.35 0.34 0.33 0.32 0.30 0.30 0.29 0.30 0.30 0.29 0.30 0.30 0.30 0.29 0.29 0.28 0.27 0.26 0.25 0.24 0.24
0.42 0.42 0.43 0.42 0.40 0.39 0.40 0.40 0.40 0.40 0.39 0.39 0.40 0.40 0.41 0.41 0.39 0.41 0.41 0.40 0.39 0.39 0.38 0.38 0.37 0.36 0.35 0.34 0.33 0.33 0.32 0.32 0.32 0.32 0.32 0.30 0.29 0.28 0.27 0.26 0.25 0.25 0.25 0.24
0.43 0.42 0.43 0.44 0.43 0.44 0.43 0.43 0.41 0.42 0.42 0.41 0.42 0.43 0.42 0.42 0.42 0.42 0.43 0.41 0.40 0.39 0.39 0.38 0.37 0.37 0.37 0.36 0.35 0.34 0.33 0.33 0.32 0.31 0.30 0.29 0.28 0.27 0.26 0.26 0.25 0.24 0.23 0.22
0.41 0.42 0.41 0.41 0.42 0.42 0.42 0.42 0.41 0.40 0.41 0.41 0.39 0.41 0.41 0.41 0.40 0.40 0.39 0.39 0.39 0.38 0.38 0.38 0.38 0.38 0.36 0.35 0.34 0.33 0.33 0.32 0.31 0.30 0.29 0.27 0.27 0.26 0.25 0.24 0.23 0.22 0.21 0.20
Wind_Speed
26 26 26 28 30 29 28 29 26 32 32 28 29 27 23 19 18 19 20 20 19 19 18 17 16 15 14 14 13 13 13 13 13 14 15 16 17 16 16 17 18 19 19 21
26 24 25 30 29 27 28 30 30 30 31 22 19 18 17 17 17 19 20 19 18 17 17 17 16 14 13 12 12 12 12 11 12 12 13 12 11 12 13 13 15 16 16 18
25 19 22 26 20 23 26 25 24 25 24 21 20 20 19 17 16 15 14 16 16 16 15 12 13 12 12 11 11 10 10 10 10 9 6 6 9 11 14 14 14 15 16 16
22 19 22 21 19 20 23 24 19 20 20 21 21 20 17 16 15 14 15 14 14 12 12 11 11 11 10 10 9 9 8 8 6 2 3 5 8 10 12 14 16 17 18 18
17 18 25 26 25 21 16 16 17 16 15 13 12 12 11 14 14 15 13 12 12 12 10 10 10 10 9 8 8 7 5 3 0 2 3 5 7 9 11 13 14 15 17 18
13 15 16 12 8 12 13 15 12 10 12 12 13 13 14 11 11 10 9 9 9 10 9 9 9 9 8 7 6 4 2 3 3 3 3 4 6 8 9 11 12 14 15 16
15 15 17 16 16 11 9 11 11 12 14 13 13 13 11 9 8 8 7 7 8 8 8 8 8 8 7 5 5 4 4 4 4 2 2 3 5 6 8 9 11 12 14 15
13 13 14 10 8 10 12 16 13 13 12 11 11 9 7 6 7 7 7 7 8 7 7 8 8 7 6 6 6 6 6 5 4 2 0 2 4 6 7 9 10 12 13 15
12 13 13 11 12 14 13 14 12 11 11 9 7 4 6 6 6 6 7 7 7 7 7 7 7 7 7 7 7 7 6 5 4 3 1 2 4 6 8 9 11 13 14 16
13 14 15 19 17 13 12 13 12 11 10 8 6 7 6 6 7 7 8 7 7 7 7 7 7 7 8 9 9 8 7 6 5 4 3 4 6 7 9 11 12 14 16 17
13 16 17 14 15 14 13 13 13 11 10 9 7 8 9 8 8 9 9 8 8 8 7 7 8 8 9 10 10 10 9 8 7 6 6 7 8 9 11 13 14 16 17 19
15 16 18 17 15 14 12 13 13 11 10 10 9 10 10 10 9 10 9 9 9 9 9 9 9 9 10 11 11 11 10 10 9 9 9 10 11 12 14 15 17 18 19 20
17 18 18 17 18 17 17 15 14 12 11 10 10 11 11 10 10 11 10 10 10 10 10 10 11 11 12 12 13 13 12 12 11 11 12 12 13 15 16 18 20 21 22 23
17 16 16 15 16 15 16 16 14 12 11 11 12 12 12 11 11 12 11 12 12 12 12 13 12 13 13 13 13 13 13 13 14 14 15 16 17 18 20 21 22 24 25 25
15 17 17 18 19 18 17 15 13 12 12 11 12 13 13 12 12 12 12 12 12 13 14 14 14 14 15 15 16 16 16 17 17 18 19 20 21 22 24 25 26 27 27 27
18 17 18 17 17 17 15 15 14 13 12 12 12 13 13 13 12 12 13 13 13 14 15 16 16 17 17 17 18 18 19 20 21 21 22 23 24 25 26 28 28 29 29 29
19 18 17 16 14 14 13 13 13 13 12 12 13 13 13 13 12 13 13 14 14 15 16 17 18 19 19 20 21 21 22 23 23 24 25 26 27 28 28 29 30 30 31 30
17 14 13 12 12 12 12 12 13 13 13 13 13 13 13 13 13 13 13 13 14 15 17 18 18 19 21 22 22 23 24 25 26 26 27 28 29 29 30 30 31 32 31 32
12 12 12 11 11 12 12 12 12 12 12 13 13 14 14 14 14 13 14 14 15 16 18 18 19 20 21 22 24 25 25 26 27 28 29 30 30 30 31 32 32 32 33 33
12 11 12 13 12 12 13 13 13 12 13 13 13 14 14 15 15 15 15 16 17 18 18 19 20 21 22 24 25 26 27 28 28 29 30 30 31 31 32 32 33 33 33 33
9 9 10 11 12 12 12 13 14 13 13 14 14 14 14 15 15 16 17 18 19 19 20 21 21 23 23 24 25 27 27 28 29 30 31 31 31 32 33 33 32 33 33 33
9 8 9 9 11 12 12 13 13 13 13 14 14 14 15 16 17 18 19 19 20 21 21 22 23 24 24 25 26 27 28 29 30 30 30 31 32 32 32 32 32 33 33 33
7 7 7 7 9 10 11 12 13 14 14 15 15 16 16 17 17 18 19 21 21 21 21 22 23 24 25 25 26 27 27 28 29 29 30 30 31 31 31 32 33 33 33 33
7 7 7 7 8 9 9 11 11 12 13 14 15 16 17 17 19 20 20 21 21 22 23 23 24 24 25 26 27 28 28 29 29 30 30 31 31 31 32 32 33 32 32 32
9 9 9 9 9 10 10 11 12 13 14 15 16 17 18 19 20 21 22 22 22 23 24 25 25 26 27 27 28 29 30 30 31 31 31 31 31 31 31 31 31 30 31 31
11 11 11 10 10 10 11 12 13 14 14 15 17 18 18 19 21 22 22 23 24 25 26 27 27 28 28 29 29 30 30 30 30 30 30 30 31 31 30 30 30 29 30 31
12 12 11 11 11 12 12 13 13 14 15 16 17 18 20 21 22 23 24 25 26 26 27 28 29 29 29 29 30 30 30 29 29 29 29 29 29 29 29 28 28 29 30 33
Wind_Direction
269 273 275 275 275 278 278 278 276 283 281 282 280 281 277 271 268 265 271 266 265 264 267 266 266 264 268 275 282 290 295 304 305 308 314 319 322 324 327 331 337 339 340 346
271 274 275 274 273 275 275 277 277 277 280 284 281 284 274 267 263 270 269 257 260 261 260 263 254 260 266 273 279 289 296 300 309 315 321 333 350 354 352 351 353 356 1 6
273 277 285 278 271 273 277 275 276 277 280 282 277 276 270 265 267 268 257 266 256 256 254 240 250 255 261 272 283 289 294 304 312 322 343 11 16 24 27 24 18 17 17 16
276 285 276 279 274 277 274 274 275 275 281 281 288 283 267 265 267 259 267 260 249 241 234 240 248 255 262 271 278 284 293 304 315 345 40 35 37 37 36 36 35 35 32 28
268 268 278 285 282 277 276 280 285 276 278 283 292 304 283 264 268 267 264 245 236 232 233 240 249 252 260 265 271 280 286 286 162 109 73 53 42 39 35 33 31 30 29 28
264 273 278 283 289 266 275 279 285 278 285 278 290 290 280 268 266 256 236 226 216 218 232 241 245 249 258 263 261 262 254 174 151 122 82 56 41 33 28 27 25 23 22 21
255 272 277 274 277 274 265 269 287 289 295 286 288 282 269 254 247 230 214 207 211 218 228 237 247 252 249 235 232 215 188 166 159 139 93 43 30 23 20 17 16 15 14 13
255 265 278 279 265 268 263 292 275 296 293 297 295 286 246 231 214 209 205 200 208 223 236 247 248 234 230 224 209 192 185 183 179 175 103 6 6 4 3 2 2 1 1 360
245 259 266 276 277 285 265 280 278 287 293 292 291 246 206 201 202 204 201 212 220 232 241 234 228 223 211 202 193 189 186 189 197 213 262 323 338 342 344 346 348 348 348 349
273 269 274 280 278 279 273 274 281 283 277 273 265 222 211 212 215 213 217 224 230 231 224 223 218 215 207 200 197 197 200 207 219 237 269 300 317 325 331 336 337 338 339 338
266 282 275 277 273 271 267 267 278 276 268 261 247 227 219 221 224 223 225 230 227 222 222 219 214 213 209 207 206 210 218 226 237 255 272 290 304 312 318 323 327 329 330 331
270 276 275 274 282 276 259 269 274 270 266 255 242 227 227 228 229 224 227 230 225 222 221 219 219 217 214 214 216 223 230 238 248 259 274 286 296 305 310 314 317 321 322 324
276 281 278 272 271 261 266 269 271 264 262 247 238 230 228 230 228 226 232 230 227 227 226 225 225 226 223 223 227 232 239 246 253 266 276 284 293 300 306 310 311 313 315 316
271 281 277 264 271 271 267 263 261 259 253 242 239 234 232 234 227 230 233 233 233 234 233 233 234 233 234 233 236 241 247 253 261 269 277 284 290 296 300 304 307 310 310 310
278 280 273 273 270 270 266 258 253 251 247 244 238 233 232 229 229 234 234 235 238 238 237 237 239 239 241 242 245 250 255 261 266 273 279 284 289 294 297 301 303 306 309 309
286 283 281 272 270 264 256 247 245 244 241 243 238 234 231 230 234 240 237 239 242 243 241 243 245 246 248 250 253 257 261 265 270 275 280 284 288 292 295 298 302 303 306 307
287 281 276 266 261 255 248 241 239 237 239 240 238 231 228 231 241 243 243 247 250 248 249 250 252 252 254 257 259 262 265 269 273 277 281 285 287 290 294 297 299 301 303 304
284 277 269 262 249 244 239 238 235 237 242 239 235 232 233 237 244 246 250 253 256 257 256 257 258 258 259 261 262 265 269 272 275 278 282 285 288 290 293 296 298 300 301 303
287 276 262 256 254 239 238 238 238 239 239 237 236 238 240 243 247 250 253 259 262 263 263 261 261 262 264 265 266 269 271 275 278 279 282 285 288 290 293 295 297 298 300 302
287 276 261 252 255 247 244 245 240 242 244 242 241 243 246 249 249 253 258 263 265 268 267 266 266 267 268 269 270 272 274 276 279 282 284 286 288 289 292 294 296 297 299 300
293 281 266 254 251 251 248 247 243 244 246 245 244 246 249 252 255 259 264 268 270 271 272 270 270 271 272 273 274 275 276 278 281 283 284 287 289 290 292 294 295 297 299 300
293 285 275 262 253 250 251 249 246 247 248 249 251 252 254 258 261 264 268 271 275 274 274 274 274 274 275 276 277 278 280 280 282 284 286 287 289 291 292 294 295 297 299 300
297 287 280 273 261 254 252 252 252 251 251 253 254 256 259 262 264 268 272 275 276 277 276 277 278 278 278 280 280 281 282 283 285 286 287 289 290 292 293 294 296 297 298 299
300 295 286 277 267 262 259 257 255 255 256 257 259 261 263 269 270 272 277 280 280 277 278 280 281 282 282 282 283 283 283 284 286 287 288 290 291 292 294 295 296 297 298 299
295 293 288 283 276 272 267 263 264 264 264 265 266 268 269 272 274 278 278 280 282 281 282 282 283 283 284 284 285 285 286 286 287 288 288 290 291 293 294 295 296 297 299 300
290 290 285 283 283 280 276 273 272 271 272 273 272 274 276 276 279 281 282 282 283 284 285 285 285 285 285 285 286 287 287 287 287 289 290 291 292 293 294 295 296 297 299 301
287 287 282 284 285 284 282 281 279 278 279 281 281 278 279 282 284 284 284 285 285 285 286 287 286 285 286 287 288 288 287 287 288 289 290 292 293 293 293 295 296 298 301 303